This is the latest recevied weather packets stored in our database for station/object N8WJW. If no packets are shown the sender has not sent any weather packets the latest 10 day(s).
| Time | Temp. | Humidity | Pressure | Rain* | Wind** | Luminosity | Snow |
|---|---|---|---|---|---|---|---|
| 1778090709 | 11.67° C | 69% | 1013.3 hPa | 0 mm | - | 308 W/m² | - |
| 1778090405 | 11.67° C | 71% | 1013.1 hPa | 0 mm | - | 446 W/m² | - |
| 1778090102 | 11.11° C | 74% | 1013 hPa | 0 mm | - | 340 W/m² | - |
| 1778089798 | 11.11° C | 72% | 1012.9 hPa | 0 mm | - | 341 W/m² | - |
| 1778089497 | 11.67° C | 72% | 1012.8 hPa | 0 mm | - | 352 W/m² | - |
| 1778089192 | 11.11° C | 72% | 1013.1 hPa | 0 mm | - | 317 W/m² | - |
| 1778088891 | 11.11° C | 72% | 1013.1 hPa | 0 mm | - | 320 W/m² | - |
| 1778088586 | 10.56° C | 71% | 1013.3 hPa | 0.51 mm | - | 318 W/m² | - |
| 1778088284 | 11.67° C | 75% | 1013.3 hPa | 0 mm | - | 269 W/m² | - |
| 1778087975 | 12.22° C | 74% | 1013.1 hPa | 0 mm | - | 337 W/m² | - |
| 1778087672 | 11.11° C | 76% | 1013 hPa | 0 mm | - | 315 W/m² | - |
| 1778087370 | 11.67° C | 74% | 1013.1 hPa | 0 mm | - | 354 W/m² | - |
| 1778087066 | 11.67° C | 75% | 1012.9 hPa | 0 mm | - | 857 W/m² | - |
| 1778086765 | 11.11° C | 79% | 1012.8 hPa | 0 mm | - | 755 W/m² | - |
| 1778086463 | 11.11° C | 80% | 1012.9 hPa | 0 mm | - | 771 W/m² | - |
| 1778086158 | 12.22° C | 79% | 1012.8 hPa | 0 mm | - | 683 W/m² | - |
| 1778085855 | 11.67° C | 80% | 1012.8 hPa | 0 mm | - | 179 W/m² | - |
| 1778085548 | 11.11° C | 81% | 1012.7 hPa | 0 mm | - | 359 W/m² | - |
| 1778085242 | 10.56° C | 81% | 1012.7 hPa | 0 mm | - | 240 W/m² | - |
| 1778084937 | 11.11° C | 80% | 1012.7 hPa | 0 mm | - | 850 W/m² | - |
| 1778084635 | 11.11° C | 80% | 1012.7 hPa | 0 mm | - | 514 W/m² | - |
| 1778084332 | 11.67° C | 79% | 1012.7 hPa | 0 mm | - | 813 W/m² | - |
| 1778084029 | 11.67° C | 79% | 1012.8 hPa | 0 mm | - | 902 W/m² | - |
| 1778083722 | 12.22° C | 80% | 1012.6 hPa | 0 mm | - | 798 W/m² | - |
| 1778083418 | 11.67° C | 78% | 1012.8 hPa | 0 mm | - | 883 W/m² | - |
* Rain latest hour (hover to see other rain measurements)
** Current wind speed in m/s (hover to see current wind gust speed)